This demonstration page uses our WeatherBlox Daily Observations layout. Learn more.

Left ArrowRight Arrow

36.17497, -115.13722

Hourly Observations for March 1, 2015

Temp ( °F °C ) Dew Point ( °F °C ) Humidity (%) Winds ( mph kmh ) Pressure ( in mb ) Visibility ( mi km ) Precip ( " mm )
12:53 am 00:53 Clear 48 8.9 33 0.6 56 56 N N/A 29.92 1013 10 16 N/A
1:53 am 01:53 Mostly Clear 48 8.9 32 undefined 54 54 NNW 7 11 29.92 1013 10 16 N/A
2:53 am 02:53 Cloudy 48 8.9 31 -0.6 52 52 N 3 6 29.93 1013 10 16 N/A
3:53 am 03:53 Cloudy 47 8.3 31 -0.6 54 54 NW 5 7 29.94 1014 10 16 N/A
4:53 am 04:53 Mostly Cloudy with Light Rain 47 8.3 31 -0.6 54 54 NNW 5 7 29.96 1015 10 16 N/A
5:53 am 05:53 Mostly Cloudy 47 8.3 31 -0.6 54 54 N N/A 29.99 1016 10 16 N/A
6:53 am 06:53 Sunny 47 8.3 30 -1.1 52 52 N 9 15 30.00 1016 10 16 N/A
7:53 am 07:53 Mostly Sunny 47 8.3 32 undefined 56 56 NNW 6 9 30.02 1017 10 16 N/A
8:53 am 08:53 Sunny 50 10 32 undefined 50 50 N N/A 30.03 1017 10 16 N/A
9:53 am 09:53 Sunny 51 10.6 33 0.6 50 50 N N/A 30.03 1017 10 16 N/A
10:53 am 10:53 Mostly Sunny 54 12 30 -1 41 41 ESE 7 11 30.00 1016 10 16 N/A
11:53 am 11:53 Partly Cloudy 55 12.8 32 undefined 42 42 ESE 9 15 30.00 1016 10 16 N/A
12:53 pm 12:53 Cloudy 55 12.8 32 undefined 42 42 SE 8 13 30.00 1016 10 16 N/A
1:53 pm 13:53 Cloudy 55 12.8 33 0.6 44 44 SE 7 11 29.98 1015 10 16 N/A
2:53 pm 14:53 Cloudy 55 12.8 33 0.6 44 44 SSE 9 15 29.99 1016 10 16 N/A
3:53 pm 15:53 Cloudy with Light Rain 50 10 40 4.4 68 68 SSE 8 13 30.03 1017 10 16 0.04 1.02
4:53 pm 16:53 Cloudy with Light Rain 50 10 39 3.9 66 66 E 7 11 30.01 1016 10 16 0.04 1.02
5:53 pm 17:53 Cloudy with Light Rain 50 10 40 4.4 68 68 NW 5 7 30.03 1017 9 14 0.01 0.25
6:53 pm 18:53 Cloudy with Light Rain 48 8.9 41 5 77 77 E 5 7 30.02 1017 10 16 0.04 1.02
7:53 pm 19:53 Cloudy with Light Rain 48 8.9 41 5 77 77 N N/A 30.03 1017 10 16 0.02 0.51
8:53 pm 20:53 Cloudy with Light Rain 47 8.3 41 5 80 80 N N/A 30.02 1017 10 16 0.05 1.27
9:32 pm 21:32 Cloudy with Light Rain 46 8 41 5 82 82 WSW 5 7 30.00 1016 10 16 N/A
9:40 pm 21:40 Cloudy with Light Rain 46 8 41 5 82 82 SW 3 6 30.00 1016 10 16 N/A
9:50 pm 21:50 Cloudy with Light Rain 46 8 41 5 82 82 S 3 6 30.00 1016 10 16 N/A
9:53 pm 21:53 Cloudy with Light Rain 47 8.3 41 5 80 80 N N/A 30.02 1017 10 16 0.02 0.51
10:53 pm 22:53 Cloudy with Light Rain 47 8.3 40 4.4 77 77 W 6 9 29.98 1015 10 16 0.02 0.51
11:53 pm 23:53 Cloudy 46 7.8 40 4.4 79 79 SSW 3 6 29.96 1015 10 16 0.01 0.25

Powered by AerisWeather